Flag for Canada Weather past 2 weeks in Whitehorse, Yukon, Canada

Now
36 °F

Passing clouds.


Feels Like: 26 °F
Forecast: 38 / 49 °F
Wind: 15 mph from Southeast

Location: Withehorse

Current Time: Apr 19, 2015 at 7:19:58 AM

Latest Report: Apr 19, 2015 at 6:00 AM


Visibility: 30 mi

Pressure: 30.06 "Hg

Humidity: 70%

Dew point: 27 °F

Location of WhitehorseLocation

Historic Weather in Whitehorse — Graph

°F

Whitehorse temperature yesterday

Maximum temperature yesterday: 43 °F (at 3:00 PM)
Minimum temperature yesterday: 30 °F (at 5:00 AM)
Average temperature yesterday: 36 °F

Past Weeks' High & Low Weather Summary

 TemperatureHumidityPressure
High46 °F (Apr 7, 2:00 PM)93% (Apr 10, 4:00 AM)30.29 "Hg (Apr 10, 4:00 AM)
Low21 °F (Apr 13, 5:00 AM)18% (Apr 14, 2:00 PM)29.11 "Hg (Apr 10, 4:00 PM)
Average35 °F55%29.72 "Hg
* Reported Apr 4 6:00 AM — Apr 19 6:00 AM, Whitehorse, Weather by CustomWeather, © 2015

Note: Actual official high and low records may vary slightly from our data, if they occured in-between our weather recording intervals... More about our weather records

Advertising

Whitehorse weather history for previous 24 hours

 ConditionsComfort  
Time TempWeatherWind HumidityBarometerVisibility
6:00 AM
Sun, Apr 19
36 °FPassing clouds.15 mph70%30.06 "Hg30 mi
5:00 AM37 °FPassing clouds.16 mph65%30.08 "Hg15 mi
4:00 AM37 °FOvercast.15 mph65%30.10 "Hg15 mi
3:00 AM37 °FOvercast.21 mph65%30.11 "Hg15 mi
2:00 AM37 °FOvercast.16 mph65%30.13 "Hg15 mi
1:00 AM37 °FOvercast.18 mph65%30.13 "Hg15 mi
12:00 AM37 °FPassing clouds.17 mph65%30.14 "Hg15 mi
11:00 PM
Sat, Apr 18
37 °FPartly cloudy.20 mph65%30.16 "Hg40 mi
10:00 PM37 °FPartly sunny.16 mph60%30.17 "Hg40 mi
9:00 PM39 °FPartly sunny.14 mph56%30.18 "Hg40 mi
8:00 PM41 °FPartly sunny.18 mph53%30.19 "Hg40 mi
7:00 PM39 °FPartly sunny.15 mph56%30.20 "Hg40 mi
6:00 PM41 °FPartly sunny.17 mph53%30.22 "Hg40 mi
5:00 PM41 °FPartly sunny.22 mph53%30.21 "Hg40 mi
4:00 PM43 °FPartly sunny.21 mph49%30.23 "Hg40 mi
3:00 PM43 °FPartly sunny.22 mph46%30.24 "Hg40 mi
2:00 PM41 °FPartly sunny.28 mph45%30.24 "Hg40 mi
1:00 PM39 °FPartly sunny.20 mph48%30.25 "Hg40 mi
12:00 PM37 °FPartly sunny.17 mph48%30.27 "Hg40 mi
11:00 AM36 °FPartly sunny.18 mph52%30.27 "Hg40 mi
10:00 AM34 °FPartly sunny.20 mph51%30.28 "Hg40 mi
9:00 AM32 °FBroken clouds.12 mph55%30.28 "Hg40 mi
8:00 AM32 °FBroken clouds.17 mph55%30.28 "Hg40 mi
7:00 AM32 °FPassing clouds.21 mph55%30.28 "Hg30 mi
Weather by CustomWeather, © 2015

See weather overviewHow to use our weather pages